Regional Weather Roundup
Issued by NWS Charleston, WV

Home | Current Version | Previous Version | Text Only | Print | Product List | Glossary On
Versions: 1 2 3 4 5 6 7 8 9 10 11 12 13 14 15 16 17 18 19 20 21 22 23 24 25 26 27 28 29 30 31 32 33 34 35 36 37 38 39 40 41 42 43 44 45 46 47
000
ASUS41 KRLX 220910
RWRRLX
West Virginia Regional Weather Roundup
National Weather Service Charleston WV
500 AM EDT WED OCT 22 2014

Note: "fair" indicates few or no clouds below 12,000 feet with no
significant weather and/or obstructions to visibility.

WVZ003-221000-
Northern Panhandle of West Virginia

CITY           SKY/WX    TMP DP  RH WIND       PRES   REMARKS
WHEELING       CLOUDY    47  43  86 NW9       30.07R
$$

WVZ009-221000-
Northwest West Virginia

CITY           SKY/WX    TMP DP  RH WIND       PRES   REMARKS
PARKERSBURG    CLOUDY    47  43  86 NW8       30.12R
$$

WVZ006-221000-
Western West Virginia

CITY           SKY/WX    TMP DP  RH WIND       PRES   REMARKS
HUNTINGTON     CLOUDY    45  41  86 N7        30.14R
$$

WVZ015-221000-
West Central West Virginia

CITY           SKY/WX    TMP DP  RH WIND       PRES   REMARKS
CHARLESTON     CLOUDY    45  42  89 VRB6      30.11R
$$

WVZ022-031-221000-
North Central West Virginia

CITY           SKY/WX    TMP DP  RH WIND       PRES   REMARKS
CLARKSBURG     LGT RAIN  45  45 100 W5        30.05R FOG
MORGANTOWN     LGT RAIN  48  44  86 NW5       30.04R
$$

WVZ025-035-042-045-221000-
Southern West Virginia

CITY           SKY/WX    TMP DP  RH WIND       PRES   REMARKS
BECKLEY        CLOUDY    41  39  93 NW12      30.05R
LOGAN          CLOUDY    43  41  93 NW8G16    30.10R
BLUEFIELD      CLOUDY    42  37  82 NW6       30.05S
LEWISBURG      MOCLDY    44  38  78 CALM      30.02R
$$

WVZ047-221000-
Northern Mountains of West Virginia

CITY           SKY/WX    TMP DP  RH WIND       PRES   REMARKS
ELKINS         LGT RAIN  43  43 100 NW7       30.03R FOG
$$

WVZ052-221000-
Eastern Panhandle of West Virginia

CITY           SKY/WX    TMP DP  RH WIND       PRES   REMARKS
MARTINSBURG    CLOUDY    53  46  77 NW10      29.93R
PETERSBURG     RAIN     N/A N/A N/A CALM      30.00R
$$



USA.gov is the U.S. government's official web portal to all federal, state and local government web resources and services.